Tracking 31027 objects as of 19-Jul-2025
HD Live streaming from Space Station
objects crossing your sky now

FENGYUN 1C DEB

Track FENGYUN 1C DEB now!
10-day predictions


NORAD ID: 30826
Int'l Code: 1999-025AVL
Perigee: 529.7 km
Apogee: 741.3 km
Inclination: 98.9 °
Period: 97.3 minutes
Semi major axis: 7006 km
RCS: 0.0008 m2 (small)
Launch date: May 10, 1999
Source: People's Republic of China (PRC)
Launch site: Taiyaun Space Center, China (TSC)

Note: This is SATELLITE DEBRIS
Your satellite tracking list
COSMOS 1743
Track 1 satellite(s)




NASA's NSSDC Master Catalog

Two Line Element Set (TLE):
1 30826U 99025AVL 25199.45935922  .00004512  00000-0  49469-3 0  9996
2 30826  98.8735  18.7751 0151060 102.6095 289.1058 14.80304779981101
Source of the keplerian elements: AFSPC